Simultaneous Nadir Overpasses (SNOs) Predictions

Prediction of SNOs between FY3D and TERRA Satellite Orbit:

Table of predicted SNOs for the next 14.0 days since TLE Epoch: 10/26/2024
Index Date (FY3D) Time (FY3D) Lat,Lon (FY3D) SZA (FY3D ) Date (TERRA) Time (TERRA) Lat,Lon (TERRA) SZA (TERRA ) Distance(km) Time Diff (sec)
1 10/27/2024 22:50:15 -76.51, 17.49 90.34 10/27/2024 22:51:26 -76.50, 17.59 90.35 3.01 71
2 10/27/2024 23:40:59 76.45,-174.98 89.62 10/27/2024 23:40:46 76.46,-174.88 89.62 2.71 13
3 10/30/2024 10:02:51 -76.50,-150.57 89.54 10/30/2024 10:03:53 -76.52,-150.50 89.52 2.48 62
4 10/30/2024 10:53:35 76.44, 16.96 90.43 10/30/2024 10:53:14 76.43, 16.88 90.41 2.89 21
5 11/01/2024 21:15:27 -76.51, 41.32 88.74 11/01/2024 21:16:20 -76.48, 41.24 88.76 3.27 53
6 11/01/2024 22:06:11 76.45,-151.15 91.22 11/01/2024 22:05:40 76.44,-151.22 91.21 1.84 31
7 11/04/2024 08:28:03 -76.53,-126.86 87.95 11/04/2024 08:28:45 -76.49,-126.87 87.99 3.65 42
8 11/04/2024 09:18:47 76.47, 40.67 92.01 11/04/2024 09:18:05 76.46, 40.68 91.99 1.47 42
9 11/06/2024 19:40:38 -76.52, 65.08 87.22 11/06/2024 19:41:09 -76.50, 65.01 87.24 2.65 31



Historial Predications of SNOs between FY3D and TERRA
